Zurück zum Katalog

COSMOS 2300

AktivNavigationPO
NORAD 23442·PAYLOAD·🇷🇺 Russia

Gestartet Dec 26, 1994 von Plesetsk Cosmodrome

Loading…

Nächste Überflüge (nächste 24 Stunden)

TLE

AktuellSource: Space-Track

Epoche: Sep 14, 2026, 10:06 UTC

1 23442U 94086B   26257.42117970 -.00000003  00000-0 -75593-4 0  9993
2 23442  82.5580 246.6315 0003331  54.7316  99.3056 12.62808638461858

Verfolge COSMOS 2300 in Echtzeit mit AllMySat

Download on the App Store